カタログに戻る

STARLINK-30916

運用中通信VLEO
NORAD 58391·PAYLOAD·🇺🇸 United States

打ち上げ Nov 20, 2023 から Vandenberg Space Force Base

Loading…

次のパス (今後24時間)

TLE

最新Source: CelesTrak SupGP

元期: Sep 14, 2026, 22:40 UTC

1 58391C 23178T   26257.94493056 -.00011024  00000+0 -32556-3 0  2579
2 58391  53.1587 197.9796 0001381 101.8305 219.3362 15.34409876    10

AllMySatでSTARLINK-30916をリアルタイム追跡

Download on the App Store